QPF
0.00 0.00 0.01 0.01 0.00 0.00 0.00 0.00 0.01 0.01 0.00 0.00 0.01 0.01 0.01 0.02 0.01 0.01 0.03 0.05 0.08 0.08 0.05 0.06 0.07 0.07 0.05 0.03 0.02 0.02 0.02 0.02 0.01 0.01 0.02 0.02 0.02 0.03 0.04 0.04 0.02 0.03 0.04 0.05
0.00 0.00 0.01 0.01 0.00 0.00 0.00 0.00 0.00 0.00 0.00 0.01 0.01 0.01 0.01 0.01 0.01 0.01 0.01 0.03 0.05 0.06 0.05 0.05 0.06 0.08 0.06 0.04 0.02 0.01 0.01 0.01 0.01 0.02 0.02 0.02 0.03 0.03 0.03 0.03 0.02 0.02 0.02 0.03
0.00 0.00 0.00 0.00 0.00 0.00 0.00 0.00 0.00 0.00 0.00 0.00 0.01 0.01 0.01 0.01 0.01 0.01 0.01 0.02 0.04 0.06 0.08 0.07 0.06 0.08 0.07 0.06 0.03 0.01 0.01 0.02 0.02 0.02 0.03 0.04 0.04 0.03 0.03 0.02 0.02 0.02 0.02 0.01
0.00 0.00 0.00 0.01 0.00 0.00 0.00 0.00 0.00 0.00 0.00 0.01 0.01 0.02 0.01 0.01 0.01 0.01 0.01 0.03 0.07 0.07 0.06 0.04 0.05 0.06 0.07 0.07 0.04 0.03 0.04 0.03 0.03 0.03 0.05 0.06 0.05 0.04 0.04 0.02 0.02 0.02 0.02 0.02
0.00 0.00 0.00 0.01 0.00 0.00 0.00 0.00 0.00 0.01 0.01 0.01 0.00 0.01 0.01 0.00 0.01 0.01 0.01 0.02 0.05 0.05 0.05 0.06 0.06 0.06 0.06 0.07 0.06 0.06 0.06 0.04 0.03 0.04 0.05 0.05 0.05 0.04 0.03 0.02 0.03 0.03 0.03 0.02
0.00 0.00 0.00 0.00 0.00 0.01 0.00 0.01 0.01 0.01 0.01 0.01 0.00 0.01 0.01 0.00 0.01 0.01 0.01 0.01 0.04 0.07 0.06 0.07 0.09 0.09 0.07 0.06 0.06 0.06 0.05 0.04 0.03 0.03 0.03 0.04 0.04 0.04 0.04 0.03 0.03 0.02 0.03 0.03
0.00 0.00 0.00 0.00 0.00 0.00 0.00 0.01 0.02 0.02 0.01 0.01 0.00 0.01 0.01 0.00 0.00 0.00 0.01 0.01 0.02 0.04 0.04 0.05 0.07 0.07 0.06 0.06 0.05 0.05 0.05 0.04 0.03 0.03 0.02 0.02 0.03 0.03 0.03 0.04 0.03 0.03 0.03 0.03
0.00 0.00 0.00 0.00 0.00 0.00 0.00 0.01 0.01 0.02 0.01 0.01 0.01 0.01 0.01 0.00 0.00 0.00 0.00 0.00 0.01 0.02 0.03 0.04 0.05 0.05 0.05 0.06 0.05 0.04 0.05 0.06 0.05 0.03 0.03 0.02 0.03 0.02 0.03 0.03 0.03 0.03 0.04 0.03
0.00 0.00 0.00 0.00 0.00 0.00 0.01 0.01 0.00 0.01 0.01 0.01 0.01 0.01 0.00 0.00 0.00 0.00 0.00 0.00 0.01 0.02 0.02 0.03 0.05 0.05 0.04 0.06 0.07 0.06 0.07 0.07 0.06 0.06 0.06 0.04 0.02 0.02 0.03 0.04 0.05 0.05 0.04 0.03
0.01 0.01 0.00 0.00 0.00 0.00 0.00 0.01 0.01 0.01 0.01 0.01 0.01 0.01 0.01 0.00 0.01 0.01 0.00 0.00 0.01 0.01 0.02 0.02 0.03 0.05 0.05 0.05 0.06 0.06 0.08 0.08 0.07 0.06 0.08 0.07 0.04 0.02 0.03 0.03 0.04 0.05 0.05 0.05
0.00 0.01 0.01 0.01 0.01 0.00 0.01 0.02 0.02 0.02 0.01 0.01 0.01 0.01 0.01 0.01 0.02 0.01 0.00 0.01 0.01 0.02 0.02 0.01 0.01 0.03 0.04 0.05 0.06 0.06 0.05 0.05 0.04 0.04 0.05 0.06 0.06 0.05 0.04 0.03 0.03 0.04 0.06 0.06
0.01 0.01 0.01 0.00 0.00 0.00 0.01 0.01 0.01 0.02 0.02 0.01 0.01 0.03 0.02 0.02 0.01 0.01 0.01 0.01 0.01 0.02 0.02 0.01 0.02 0.01 0.01 0.02 0.04 0.05 0.04 0.04 0.04 0.03 0.02 0.03 0.04 0.05 0.04 0.03 0.04 0.03 0.04 0.05
0.01 0.01 0.00 0.00 0.00 0.00 0.01 0.01 0.01 0.01 0.01 0.01 0.01 0.03 0.03 0.02 0.01 0.01 0.01 0.01 0.01 0.01 0.02 0.02 0.01 0.01 0.01 0.01 0.01 0.02 0.02 0.02 0.02 0.02 0.02 0.02 0.03 0.03 0.03 0.03 0.04 0.04 0.05 0.05
0.00 0.00 0.00 0.00 0.00 0.00 0.01 0.01 0.01 0.01 0.01 0.01 0.02 0.03 0.02 0.01 0.01 0.00 0.01 0.01 0.01 0.01 0.01 0.01 0.01 0.01 0.01 0.01 0.01 0.01 0.02 0.02 0.01 0.01 0.02 0.02 0.02 0.02 0.02 0.03 0.05 0.06 0.05 0.05
0.00 0.00 0.00 0.00 0.00 0.00 0.00 0.01 0.01 0.01 0.01 0.01 0.02 0.02 0.01 0.01 0.01 0.00 0.00 0.01 0.01 0.01 0.01 0.02 0.01 0.01 0.01 0.01 0.01 0.01 0.02 0.02 0.01 0.01 0.01 0.02 0.02 0.02 0.03 0.04 0.05 0.05 0.05 0.05
0.00 0.01 0.01 0.00 0.00 0.00 0.01 0.01 0.01 0.01 0.01 0.01 0.01 0.01 0.01 0.01 0.00 0.00 0.00 0.00 0.01 0.01 0.01 0.01 0.01 0.01 0.00 0.01 0.01 0.01 0.01 0.01 0.01 0.01 0.01 0.02 0.02 0.04 0.05 0.04 0.05 0.04 0.03 0.02
0.00 0.00 0.01 0.01 0.01 0.01 0.02 0.02 0.01 0.01 0.01 0.01 0.01 0.01 0.00 0.00 0.00 0.00 0.00 0.00 0.01 0.01 0.01 0.01 0.01 0.01 0.01 0.01 0.01 0.01 0.01 0.01 0.01 0.01 0.01 0.02 0.04 0.04 0.03 0.03 0.03 0.02 0.02 0.02
0.00 0.00 0.01 0.01 0.01 0.01 0.01 0.01 0.01 0.01 0.00 0.00 0.00 0.01 0.00 0.00 0.00 0.00 0.00 0.01 0.01 0.01 0.01 0.01 0.01 0.01 0.01 0.01 0.01 0.01 0.01 0.01 0.02 0.03 0.04 0.06 0.04 0.02 0.02 0.02 0.01 0.01 0.01 0.01
0.00 0.00 0.01 0.01 0.01 0.01 0.01 0.00 0.00 0.01 0.01 0.00 0.00 0.01 0.01 0.00 0.00 0.00 0.00 0.01 0.00 0.00 0.00 0.01 0.01 0.01 0.01 0.01 0.01 0.02 0.03 0.03 0.03 0.04 0.04 0.04 0.02 0.01 0.01 0.01 0.01 0.01 0.01 0.01
0.00 0.00 0.01 0.01 0.01 0.01 0.00 0.00 0.00 0.01 0.03 0.01 0.01 0.01 0.00 0.00 0.00 0.00 0.00 0.00 0.01 0.01 0.01 0.01 0.01 0.01 0.01 0.02 0.02 0.03 0.03 0.02 0.02 0.02 0.02 0.01 0.00 0.00 0.01 0.01 0.01 0.01 0.01 0.01
0.00 0.00 0.01 0.00 0.01 0.01 0.00 0.00 0.00 0.02 0.03 0.01 0.02 0.01 0.00 0.00 0.00 0.00 0.00 0.00 0.00 0.00 0.01 0.00 0.01 0.01 0.01 0.02 0.01 0.01 0.01 0.01 0.00 0.00 0.00 0.00 0.00 0.00 0.01 0.01 0.01 0.01 0.01 0.01
0.02 0.02 0.02 0.01 0.02 0.01 0.00 0.00 0.01 0.02 0.01 0.01 0.02 0.01 0.00 0.00 0.00 0.00 0.00 0.00 0.01 0.01 0.01 0.01 0.01 0.01 0.01 0.01 0.01 0.01 0.01 0.00 0.00 0.00 0.01 0.00 0.00 0.00 0.00 0.01 0.01 0.01 0.01 0.01
0.03 0.03 0.03 0.03 0.03 0.02 0.01 0.01 0.01 0.01 0.01 0.01 0.01 0.01 0.01 0.00 0.00 0.00 0.00 0.00 0.00 0.01 0.01 0.01 0.01 0.01 0.01 0.01 0.01 0.01 0.01 0.00 0.00 0.00 0.01 0.00 0.00 0.00 0.00 0.00 0.00 0.00 0.01 0.01
0.04 0.03 0.02 0.03 0.04 0.03 0.01 0.02 0.03 0.03 0.02 0.01 0.01 0.01 0.01 0.00 0.00 0.00 0.00 0.00 0.00 0.00 0.00 0.00 0.01 0.01 0.01 0.01 0.01 0.01 0.01 0.01 0.00 0.00 0.00 0.00 0.00 0.00 0.00 0.00 0.00 0.00 0.00 0.00
0.03 0.04 0.03 0.03 0.03 0.02 0.01 0.01 0.01 0.02 0.03 0.03 0.02 0.01 0.01 0.00 0.00 0.00 0.00 0.00 0.00 0.00 0.00 0.01 0.01 0.01 0.01 0.01 0.01 0.01 0.01 0.01 0.00 0.00 0.00 0.00 0.00 0.00 0.00 0.00 0.00 0.00 0.00 0.00
0.03 0.05 0.05 0.05 0.04 0.03 0.02 0.01 0.01 0.01 0.01 0.01 0.01 0.01 0.01 0.01 0.00 0.00 0.01 0.00 0.00 0.00 0.00 0.01 0.01 0.01 0.01 0.01 0.01 0.01 0.01 0.01 0.00 0.00 0.00 0.00 0.00 0.00 0.00 0.00 0.00 0.00 0.00 0.00
MSLP
1009.17 1009.52 1009.74 1009.83 1009.79 1009.62 1009.33 1008.95 1008.48 1007.96 1007.44 1006.94 1006.53 1006.24 1006.10 1006.15 1006.37 1006.74 1007.22 1007.75 1008.31 1008.83 1009.29 1009.68 1010.00 1010.27 1010.51 1010.72 1010.92 1011.10 1011.24 1011.33 1011.35 1011.29 1011.15 1010.93 1010.64 1010.32 1009.98 1009.64 1009.33 1009.03 1008.75 1008.48
1009.23 1009.35 1009.37 1009.30 1009.16 1008.98 1008.75 1008.48 1008.17 1007.81 1007.43 1007.04 1006.68 1006.39 1006.21 1006.16 1006.27 1006.53 1006.91 1007.38 1007.89 1008.41 1008.89 1009.32 1009.69 1010.00 1010.27 1010.51 1010.73 1010.93 1011.09 1011.19 1011.23 1011.19 1011.07 1010.87 1010.60 1010.29 1009.95 1009.62 1009.29 1008.99 1008.71 1008.44
1009.08 1008.97 1008.80 1008.61 1008.43 1008.29 1008.17 1008.07 1007.94 1007.77 1007.54 1007.25 1006.93 1006.60 1006.32 1006.14 1006.10 1006.20 1006.44 1006.81 1007.27 1007.77 1008.28 1008.76 1009.19 1009.58 1009.92 1010.22 1010.49 1010.71 1010.89 1011.02 1011.08 1011.07 1010.97 1010.79 1010.55 1010.26 1009.94 1009.62 1009.31 1009.02 1008.75 1008.48
1008.72 1008.41 1008.10 1007.83 1007.66 1007.60 1007.64 1007.73 1007.82 1007.84 1007.76 1007.56 1007.25 1006.86 1006.46 1006.11 1005.87 1005.78 1005.87 1006.11 1006.50 1006.98 1007.52 1008.07 1008.59 1009.08 1009.51 1009.89 1010.21 1010.49 1010.70 1010.86 1010.94 1010.95 1010.88 1010.73 1010.53 1010.27 1009.99 1009.69 1009.40 1009.12 1008.86 1008.60
1008.20 1007.74 1007.32 1007.03 1006.92 1006.98 1007.20 1007.50 1007.79 1008.00 1008.06 1007.92 1007.61 1007.15 1006.61 1006.08 1005.64 1005.36 1005.27 1005.39 1005.70 1006.16 1006.72 1007.34 1007.96 1008.55 1009.09 1009.56 1009.96 1010.29 1010.55 1010.73 1010.85 1010.88 1010.84 1010.72 1010.55 1010.33 1010.08 1009.81 1009.54 1009.28 1009.01 1008.76
1007.59 1007.02 1006.56 1006.28 1006.25 1006.45 1006.84 1007.33 1007.81 1008.18 1008.35 1008.27 1007.95 1007.42 1006.75 1006.06 1005.44 1004.97 1004.73 1004.72 1004.96 1005.40 1005.99 1006.66 1007.37 1008.06 1008.70 1009.26 1009.74 1010.13 1010.43 1010.65 1010.79 1010.85 1010.84 1010.75 1010.61 1010.42 1010.19 1009.94 1009.69 1009.43 1009.16 1008.90
1006.97 1006.34 1005.87 1005.64 1005.69 1006.01 1006.54 1007.18 1007.81 1008.30 1008.56 1008.52 1008.19 1007.61 1006.86 1006.04 1005.28 1004.68 1004.30 1004.20 1004.36 1004.77 1005.36 1006.08 1006.86 1007.63 1008.35 1008.99 1009.54 1009.99 1010.34 1010.59 1010.76 1010.84 1010.85 1010.79 1010.67 1010.50 1010.29 1010.05 1009.79 1009.53 1009.25 1008.97
1006.38 1005.74 1005.29 1005.11 1005.23 1005.64 1006.26 1006.99 1007.71 1008.27 1008.59 1008.59 1008.27 1007.68 1006.89 1006.01 1005.17 1004.48 1004.02 1003.84 1003.94 1004.31 1004.89 1005.62 1006.42 1007.24 1008.02 1008.72 1009.32 1009.81 1010.20 1010.49 1010.68 1010.79 1010.82 1010.78 1010.68 1010.52 1010.32 1010.08 1009.81 1009.53 1009.25 1008.95
1005.86 1005.25 1004.84 1004.70 1004.86 1005.30 1005.95 1006.71 1007.45 1008.04 1008.39 1008.43 1008.15 1007.59 1006.83 1005.96 1005.11 1004.39 1003.89 1003.65 1003.70 1004.02 1004.56 1005.26 1006.06 1006.88 1007.67 1008.40 1009.03 1009.56 1009.98 1010.30 1010.52 1010.66 1010.71 1010.69 1010.60 1010.45 1010.25 1010.01 1009.74 1009.44 1009.14 1008.83
1005.40 1004.86 1004.50 1004.38 1004.54 1004.96 1005.58 1006.30 1007.02 1007.60 1007.97 1008.06 1007.85 1007.37 1006.69 1005.90 1005.11 1004.42 1003.91 1003.65 1003.64 1003.89 1004.36 1005.00 1005.74 1006.52 1007.29 1008.01 1008.65 1009.20 1009.65 1010.00 1010.26 1010.42 1010.50 1010.51 1010.43 1010.30 1010.10 1009.86 1009.58 1009.27 1008.96 1008.65
1005.01 1004.55 1004.24 1004.14 1004.27 1004.63 1005.17 1005.81 1006.46 1007.01 1007.39 1007.53 1007.42 1007.07 1006.53 1005.87 1005.19 1004.58 1004.10 1003.82 1003.77 1003.93 1004.30 1004.84 1005.48 1006.18 1006.89 1007.58 1008.21 1008.76 1009.23 1009.61 1009.89 1010.09 1010.21 1010.24 1010.19 1010.07 1009.88 1009.65 1009.37 1009.07 1008.76 1008.46
1004.68 1004.32 1004.06 1003.96 1004.05 1004.32 1004.76 1005.30 1005.87 1006.38 1006.77 1006.99 1007.00 1006.80 1006.43 1005.95 1005.41 1004.90 1004.47 1004.19 1004.08 1004.15 1004.41 1004.81 1005.33 1005.93 1006.55 1007.18 1007.77 1008.32 1008.79 1009.19 1009.50 1009.73 1009.88 1009.94 1009.92 1009.83 1009.66 1009.44 1009.17 1008.88 1008.59 1008.30
1004.43 1004.16 1003.95 1003.86 1003.91 1004.10 1004.43 1004.87 1005.36 1005.85 1006.26 1006.55 1006.69 1006.67 1006.49 1006.18 1005.80 1005.40 1005.04 1004.76 1004.60 1004.58 1004.72 1004.99 1005.37 1005.84 1006.37 1006.91 1007.46 1007.97 1008.43 1008.83 1009.17 1009.42 1009.59 1009.68 1009.69 1009.62 1009.48 1009.27 1009.03 1008.75 1008.47 1008.20
1004.27 1004.09 1003.95 1003.87 1003.89 1004.02 1004.27 1004.63 1005.06 1005.52 1005.96 1006.34 1006.61 1006.75 1006.75 1006.62 1006.39 1006.10 1005.80 1005.54 1005.34 1005.24 1005.26 1005.40 1005.66 1006.00 1006.42 1006.88 1007.35 1007.82 1008.25 1008.64 1008.96 1009.22 1009.40 1009.51 1009.53 1009.48 1009.35 1009.17 1008.93 1008.67 1008.40 1008.14
1004.22 1004.15 1004.07 1004.02 1004.03 1004.12 1004.32 1004.63 1005.03 1005.48 1005.96 1006.41 1006.79 1007.07 1007.23 1007.25 1007.16 1006.97 1006.73 1006.48 1006.26 1006.10 1006.04 1006.07 1006.21 1006.45 1006.76 1007.13 1007.52 1007.91 1008.29 1008.64 1008.93 1009.16 1009.33 1009.43 1009.45 1009.40 1009.28 1009.11 1008.88 1008.62 1008.35 1008.08
1004.32 1004.32 1004.31 1004.30 1004.33 1004.42 1004.61 1004.89 1005.28 1005.74 1006.25 1006.76 1007.22 1007.61 1007.88 1008.02 1008.03 1007.93 1007.75 1007.53 1007.30 1007.11 1006.99 1006.95 1007.00 1007.14 1007.35 1007.62 1007.92 1008.23 1008.53 1008.80 1009.03 1009.21 1009.34 1009.41 1009.42 1009.35 1009.23 1009.04 1008.81 1008.54 1008.25 1007.96
1004.54 1004.62 1004.68 1004.72 1004.79 1004.90 1005.09 1005.38 1005.77 1006.24 1006.76 1007.30 1007.82 1008.27 1008.61 1008.83 1008.91 1008.88 1008.75 1008.56 1008.34 1008.15 1007.99 1007.91 1007.90 1007.97 1008.09 1008.26 1008.45 1008.66 1008.85 1009.03 1009.17 1009.28 1009.35 1009.38 1009.35 1009.26 1009.12 1008.92 1008.67 1008.38 1008.06 1007.73
1004.89 1005.02 1005.13 1005.23 1005.35 1005.50 1005.72 1006.02 1006.41 1006.88 1007.41 1007.95 1008.48 1008.94 1009.30 1009.55 1009.67 1009.68 1009.59 1009.43 1009.25 1009.07 1008.91 1008.81 1008.75 1008.75 1008.79 1008.86 1008.95 1009.03 1009.11 1009.17 1009.22 1009.25 1009.25 1009.22 1009.16 1009.05 1008.90 1008.68 1008.42 1008.11 1007.76 1007.39
1005.32 1005.48 1005.64 1005.80 1005.96 1006.16 1006.41 1006.73 1007.12 1007.58 1008.08 1008.59 1009.08 1009.52 1009.86 1010.10 1010.22 1010.25 1010.18 1010.06 1009.90 1009.74 1009.59 1009.47 1009.38 1009.32 1009.28 1009.24 1009.21 1009.18 1009.14 1009.09 1009.04 1008.99 1008.93 1008.87 1008.79 1008.67 1008.51 1008.31 1008.04 1007.72 1007.35 1006.96
1005.80 1005.99 1006.18 1006.37 1006.58 1006.82 1007.10 1007.43 1007.82 1008.25 1008.70 1009.16 1009.58 1009.95 1010.24 1010.44 1010.54 1010.55 1010.49 1010.38 1010.24 1010.10 1009.95 1009.81 1009.68 1009.55 1009.42 1009.28 1009.13 1008.98 1008.82 1008.68 1008.55 1008.45 1008.36 1008.28 1008.21 1008.11 1007.98 1007.79 1007.55 1007.24 1006.88 1006.48
1006.32 1006.53 1006.74 1006.97 1007.21 1007.48 1007.77 1008.11 1008.47 1008.86 1009.25 1009.63 1009.97 1010.25 1010.47 1010.59 1010.64 1010.63 1010.55 1010.44 1010.30 1010.14 1009.98 1009.80 1009.61 1009.40 1009.17 1008.93 1008.67 1008.40 1008.16 1007.94 1007.76 1007.63 1007.54 1007.49 1007.45 1007.41 1007.33 1007.19 1006.99 1006.72 1006.39 1006.01
1006.91 1007.12 1007.35 1007.59 1007.86 1008.14 1008.45 1008.77 1009.10 1009.44 1009.76 1010.05 1010.29 1010.48 1010.60 1010.65 1010.63 1010.57 1010.46 1010.31 1010.15 1009.96 1009.75 1009.51 1009.24 1008.94 1008.61 1008.25 1007.89 1007.54 1007.22 1006.95 1006.75 1006.63 1006.57 1006.57 1006.60 1006.62 1006.62 1006.56 1006.42 1006.20 1005.92 1005.58
1007.59 1007.81 1008.04 1008.30 1008.57 1008.86 1009.15 1009.45 1009.74 1010.02 1010.26 1010.47 1010.62 1010.71 1010.73 1010.70 1010.61 1010.49 1010.32 1010.13 1009.92 1009.67 1009.39 1009.08 1008.72 1008.31 1007.87 1007.41 1006.96 1006.53 1006.16 1005.87 1005.67 1005.58 1005.58 1005.64 1005.74 1005.85 1005.92 1005.93 1005.87 1005.71 1005.48 1005.19
1008.41 1008.63 1008.87 1009.12 1009.38 1009.65 1009.92 1010.18 1010.42 1010.64 1010.81 1010.93 1010.99 1010.99 1010.93 1010.82 1010.67 1010.48 1010.26 1010.01 1009.73 1009.42 1009.06 1008.65 1008.19 1007.68 1007.14 1006.59 1006.06 1005.57 1005.17 1004.87 1004.70 1004.64 1004.69 1004.81 1004.98 1005.16 1005.29 1005.36 1005.34 1005.24 1005.05 1004.81
1009.38 1009.61 1009.83 1010.07 1010.30 1010.54 1010.76 1010.97 1011.15 1011.30 1011.39 1011.43 1011.42 1011.35 1011.22 1011.05 1010.84 1010.59 1010.32 1010.02 1009.67 1009.29 1008.85 1008.35 1007.80 1007.20 1006.58 1005.96 1005.36 1004.84 1004.42 1004.12 1003.96 1003.93 1004.01 1004.17 1004.38 1004.58 1004.74 1004.84 1004.84 1004.75 1004.59 1004.37
1010.49 1010.71 1010.92 1011.12 1011.30 1011.48 1011.64 1011.78 1011.88 1011.95 1011.97 1011.95 1011.86 1011.73 1011.56 1011.34 1011.08 1010.80 1010.49 1010.13 1009.74 1009.30 1008.80 1008.23 1007.61 1006.95 1006.27 1005.60 1004.97 1004.43 1003.99 1003.69 1003.53 1003.50 1003.58 1003.74 1003.93 1004.12 1004.26 1004.33 1004.32 1004.21 1004.04 1003.82
Thickness
5769 5765 5765 5773 5777 5779 5776 5772 5770 5775 5783 5777 5771 5769 5770 5772 5768 5764 5760 5755 5751 5747 5747 5744 5741 5738 5735 5732 5728 5725 5721 5718 5715 5712 5709 5707 5705 5703 5701 5697 5692 5689 5686 5684
5763 5763 5776 5781 5780 5776 5773 5769 5771 5776 5779 5772 5768 5765 5770 5769 5765 5763 5758 5752 5749 5745 5742 5738 5736 5734 5731 5727 5724 5721 5717 5714 5711 5707 5704 5702 5699 5697 5695 5692 5687 5684 5681 5678
5763 5774 5780 5775 5772 5768 5771 5770 5771 5769 5772 5772 5765 5759 5764 5766 5766 5762 5758 5754 5750 5745 5739 5735 5732 5731 5728 5724 5720 5717 5712 5709 5705 5702 5701 5698 5694 5692 5690 5685 5682 5679 5675 5672
5770 5779 5775 5772 5771 5771 5767 5780 5775 5770 5764 5765 5764 5751 5760 5763 5758 5756 5754 5752 5748 5745 5740 5735 5731 5728 5724 5721 5717 5712 5708 5703 5700 5698 5695 5691 5688 5685 5682 5680 5677 5673 5670 5668
5770 5777 5773 5770 5775 5776 5775 5782 5776 5772 5767 5763 5765 5754 5758 5762 5753 5753 5752 5750 5748 5744 5740 5733 5729 5725 5721 5717 5712 5707 5702 5698 5695 5692 5689 5686 5684 5682 5679 5675 5671 5668 5667 5664
5777 5785 5782 5779 5782 5781 5779 5774 5772 5771 5769 5750 5760 5752 5750 5759 5754 5753 5752 5749 5744 5741 5737 5731 5727 5722 5718 5714 5709 5703 5697 5693 5690 5687 5684 5681 5678 5675 5671 5668 5665 5664 5663 5661
5767 5776 5782 5783 5773 5775 5773 5762 5753 5750 5749 5751 5761 5751 5750 5759 5759 5754 5749 5746 5743 5739 5733 5726 5722 5718 5713 5709 5704 5700 5694 5689 5686 5683 5679 5676 5673 5670 5667 5664 5662 5660 5659 5657
5757 5761 5775 5778 5775 5771 5771 5766 5748 5737 5744 5755 5754 5747 5754 5759 5757 5754 5750 5745 5740 5736 5731 5724 5720 5715 5710 5705 5700 5696 5691 5687 5683 5680 5676 5673 5670 5668 5665 5661 5659 5657 5655 5653
5761 5762 5780 5780 5782 5778 5767 5768 5774 5757 5754 5745 5752 5751 5753 5754 5749 5747 5744 5739 5735 5731 5727 5722 5717 5713 5707 5702 5697 5693 5689 5685 5681 5677 5673 5670 5667 5664 5661 5658 5656 5655 5651 5649
5768 5756 5772 5777 5778 5776 5776 5771 5760 5752 5735 5734 5745 5745 5746 5741 5740 5741 5738 5734 5731 5728 5724 5719 5714 5709 5705 5700 5695 5691 5686 5682 5679 5675 5671 5669 5665 5661 5658 5656 5652 5650 5647 5645
5767 5754 5760 5766 5761 5763 5761 5758 5756 5755 5750 5734 5731 5740 5751 5745 5741 5738 5736 5733 5729 5725 5721 5716 5712 5708 5702 5698 5693 5687 5683 5679 5676 5673 5669 5665 5662 5659 5656 5653 5650 5647 5645 5643
5759 5755 5750 5760 5771 5772 5766 5761 5754 5740 5738 5740 5734 5736 5749 5746 5742 5738 5734 5730 5727 5722 5718 5714 5709 5705 5700 5695 5690 5686 5681 5678 5675 5671 5667 5664 5660 5657 5654 5652 5649 5646 5643 5641
5751 5744 5737 5744 5752 5759 5756 5757 5756 5750 5742 5737 5729 5732 5742 5741 5736 5733 5729 5725 5722 5718 5714 5710 5706 5701 5697 5692 5688 5684 5680 5677 5674 5671 5666 5662 5659 5656 5653 5650 5647 5644 5642 5639
5747 5741 5738 5736 5745 5752 5747 5750 5752 5746 5739 5735 5734 5734 5734 5731 5729 5727 5724 5720 5717 5713 5710 5706 5702 5698 5694 5690 5686 5683 5679 5676 5673 5669 5665 5661 5657 5654 5651 5648 5646 5643 5640 5637
5740 5735 5739 5743 5748 5747 5745 5745 5746 5742 5742 5736 5736 5734 5730 5729 5727 5724 5721 5716 5712 5709 5706 5702 5698 5695 5692 5688 5684 5681 5677 5674 5671 5668 5664 5660 5657 5654 5650 5647 5644 5641 5639 5636
5732 5727 5731 5731 5739 5739 5735 5739 5741 5740 5740 5736 5733 5728 5732 5730 5727 5722 5717 5712 5708 5705 5702 5699 5696 5693 5689 5686 5683 5679 5676 5673 5670 5667 5664 5661 5657 5653 5649 5646 5643 5640 5637 5635
5725 5720 5718 5722 5732 5728 5722 5734 5735 5734 5735 5732 5726 5726 5727 5721 5718 5716 5714 5710 5706 5704 5701 5697 5694 5691 5688 5684 5681 5677 5674 5671 5668 5665 5662 5659 5656 5652 5649 5646 5643 5639 5636 5633
5714 5712 5715 5717 5714 5701 5726 5740 5738 5731 5729 5730 5726 5724 5722 5718 5717 5716 5714 5709 5705 5702 5699 5696 5693 5690 5687 5683 5680 5676 5673 5670 5667 5663 5660 5658 5655 5651 5648 5645 5641 5638 5635 5632
5713 5706 5707 5710 5708 5712 5720 5728 5729 5721 5717 5722 5718 5716 5716 5716 5714 5712 5711 5708 5705 5702 5698 5695 5692 5689 5684 5681 5677 5674 5671 5668 5665 5662 5659 5656 5654 5651 5647 5644 5640 5637 5634 5631
5706 5703 5701 5702 5697 5699 5714 5725 5729 5719 5706 5714 5712 5708 5708 5706 5704 5705 5706 5704 5702 5699 5696 5693 5690 5687 5682 5678 5675 5671 5668 5666 5663 5661 5658 5655 5653 5649 5646 5643 5640 5637 5634 5631
5692 5689 5690 5693 5693 5704 5711 5717 5716 5698 5699 5706 5707 5704 5702 5699 5699 5700 5701 5699 5697 5695 5692 5690 5687 5683 5680 5676 5672 5669 5666 5664 5663 5661 5658 5654 5651 5648 5645 5642 5639 5636 5634 5631
5686 5686 5685 5687 5684 5689 5702 5703 5697 5694 5701 5700 5699 5698 5695 5694 5695 5694 5694 5693 5692 5690 5688 5686 5683 5680 5677 5674 5670 5667 5664 5663 5662 5659 5656 5653 5649 5648 5646 5641 5638 5635 5632 5631
5678 5680 5683 5682 5683 5686 5691 5691 5692 5693 5690 5690 5690 5690 5689 5687 5687 5687 5687 5686 5686 5685 5683 5681 5679 5676 5674 5671 5669 5665 5664 5662 5660 5657 5654 5651 5648 5646 5643 5640 5637 5635 5632 5631
5670 5670 5671 5669 5675 5678 5681 5682 5684 5685 5683 5684 5684 5683 5684 5682 5682 5681 5680 5680 5679 5679 5678 5677 5675 5672 5669 5668 5667 5665 5663 5660 5657 5654 5652 5650 5647 5644 5641 5639 5638 5635 5633 5630
5657 5659 5659 5659 5664 5666 5669 5671 5673 5675 5676 5675 5676 5677 5677 5677 5676 5675 5674 5674 5674 5674 5673 5673 5670 5668 5666 5665 5663 5662 5660 5657 5654 5651 5650 5649 5647 5644 5639 5637 5634 5633 5629 5626
5648 5646 5646 5650 5653 5652 5656 5661 5664 5664 5665 5667 5667 5668 5670 5670 5669 5669 5669 5669 5668 5668 5668 5667 5666 5665 5663 5661 5660 5659 5657 5655 5651 5649 5647 5648 5646 5643 5641 5638 5634 5628 5625 5620